Über Orbcomm D5
Group: 3 satellites
Beschreibung wird geladen...
Live-Position
3D-Globus wird geladen...
Nächste Überflüge
Höhenverlauf
Altitude vs Time
uPlot chart will show altitude changes over time
Zweizeiliger Elementsatz
1 25983U 99065D 26061.66781053 .00001211 00000-0 41917-3 0 9997
2 25983 45.0272 209.3527 0008257 276.1151 83.8758 14.40767112373333
Epoch: 2. März 2026 •
Age: 35 hours
Aktueller Status
Höhe 758.0 km
Geschwindigkeit 7.48 km/s
Subsatellitenpunkt -15.43°S,
71.2°E
Startdatum 4. Dez. 1999
Alter 26.2 years
Typ other
Technische Details
Klassifizierung Payload
Masse 44.00 kg
Trockenmasse 44.00 kg
Gesamtmasse 44.00 kg
Länge 0.20 m
Durchmesser 1.00 m
Spannweite 4.30 m
Form Cyl + 2 Pan + Ant
Hersteller OSCG
Bus-Typ Microstar
Phasenstatus In Orbit
Besitzer/Staat ORBC/US
Große Konstellationen
Loading constellations...